Location: Ammerl�gen
(47.2167°N, 9.6000°E)
Time: 03:41:31
(UTC+00:00)

Cosmos 2074 Rocket - Pass Details

Date: 21 April 2021
Orbit: 968 x 985 km, 82.9° (Epoch: 16 May)

Event Time Altitude Azimuth Distance (km) Brightness Sun altitude
Rises 23:06:59 0° 351° (N) 3,689 8.2 -30.5°
Reaches altitude 10° 23:09:30 10° 352° (N) 2,740 7.2 -30.5°
Enters shadow 23:15:34 83° 15° (NNE) 995 3.9 -30.6°
